Wind_Speed
10 8 10 10 3 5 8 5 7 6 7 6 7 6 8 4 2 1 3 8 4 3 4 4 6 5 4 3 2 4 5 7 8 7 7 7 8 8 8 9 9 8 8 9 8 8 7 7 7
8 6 7 9 2 5 7 6 8 5 5 3 2 3 8 7 4 7 9 5 3 2 5 5 5 4 3 2 2 2 3 5 6 7 7 8 9 10 10 11 11 12 12 13 13 13 13 12 11
3 8 8 2 1 8 11 8 9 10 8 2 5 6 6 7 8 9 6 5 6 6 6 6 4 2 2 3 2 2 3 3 3 4 6 7 9 10 11 12 14 15 16 17 18 18 18 18 17
2 5 7 4 6 9 12 13 13 12 6 5 8 6 12 10 9 8 9 8 8 6 5 6 4 3 4 4 4 5 5 5 5 5 5 5 6 7 8 10 11 12 13 15 16 18 20 21 22
1 4 3 6 9 10 13 15 13 7 7 8 9 12 15 13 13 9 8 8 6 6 7 8 7 6 5 6 7 6 4 3 3 4 5 5 6 7 9 10 10 12 13 14 14 16 18 20 21
3 3 6 7 11 11 9 13 12 7 8 11 12 13 14 13 11 8 8 8 7 7 8 8 7 7 7 6 5 4 4 4 5 5 6 8 10 12 12 13 15 16 18 20 21 20 19 18 20
7 6 5 5 9 9 7 12 5 7 10 11 10 8 12 14 10 10 10 9 8 9 10 10 8 7 7 6 5 6 7 8 9 10 9 10 11 13 14 17 19 20 21 22 24 24 23 24 22
12 9 10 9 10 9 5 5 10 7 11 10 6 5 10 12 12 10 10 10 10 11 9 8 6 6 5 4 4 5 7 11 13 13 14 17 17 18 20 19 20 22 23 24 25 27 29 31 32
19 15 16 13 11 8 6 7 13 11 13 7 7 5 10 13 10 10 8 7 7 8 7 3 4 6 6 6 9 12 13 12 14 15 15 14 13 17 18 18 17 17 18 20 21 24 27 29 30
18 18 16 12 14 12 6 9 15 11 13 8 9 9 13 6 6 6 6 5 6 6 6 4 5 7 5 8 9 10 11 13 14 15 15 15 16 15 16 16 15 16 18 19 22 23 25 25 20
14 15 15 13 15 15 7 11 15 15 13 11 13 11 11 8 5 3 2 2 3 4 5 6 9 10 9 10 12 14 16 17 17 16 16 17 18 17 14 16 15 17 19 21 22 21 21 19 15
9 13 10 13 14 15 8 13 18 13 17 15 14 14 13 10 7 5 2 2 4 5 7 10 12 13 13 14 16 18 20 19 18 18 18 20 20 18 18 19 19 19 20 21 22 21 21 19 15
11 9 12 11 17 16 16 13 19 21 18 17 15 15 12 10 8 6 4 6 8 10 12 13 13 15 16 18 20 21 22 21 21 21 21 22 22 21 21 21 21 23 23 24 24 23 23 23 21
12 10 13 13 18 19 18 21 19 21 21 20 19 12 12 9 6 4 6 8 11 12 15 17 18 19 20 20 21 21 22 23 24 25 25 26 25 25 26 26 25 25 27 27 26 23 24 24 24
9 10 10 13 19 18 18 17 28 25 22 21 22 14 11 8 6 7 8 11 13 16 18 19 19 21 21 22 22 22 24 25 26 28 28 28 29 29 28 28 29 29 30 30 28 25 22 23 24
10 12 13 10 14 18 18 17 28 25 23 23 23 17 15 13 11 10 12 14 16 18 20 22 22 20 18 18 19 20 21 23 25 28 30 31 31 30 30 30 31 31 32 31 28 25 26 27 28
14 16 13 11 12 14 17 15 27 27 26 24 23 20 19 17 14 15 15 17 18 20 20 18 15 16 17 18 20 22 23 23 24 26 27 29 30 30 32 33 34 33 32 30 29 30 31 32 35
15 11 13 14 13 13 14 14 26 30 29 25 22 23 19 20 18 17 18 18 19 18 15 14 15 16 17 20 22 25 27 28 28 28 28 28 29 29 31 32 32 31 32 33 34 36 37 39 42
9 11 10 11 19 14 15 20 20 28 30 26 25 24 23 23 20 19 19 20 19 17 15 14 15 16 19 23 25 28 31 33 35 34 34 33 33 32 33 34 34 33 36 37 39 41 43 44 48
10 11 10 8 11 14 15 18 23 23 31 31 27 27 27 25 22 19 19 20 18 16 13 13 13 17 20 24 28 31 33 37 39 39 39 37 36 36 36 36 37 37 40 42 42 43 43 42 41
12 13 11 7 10 12 13 16 28 30 27 34 32 31 30 26 21 20 19 19 16 12 11 11 14 19 25 29 33 36 39 40 40 40 40 39 37 37 38 38 38 38 39 40 38 35 32 28 25
13 11 10 9 11 6 14 6 11 23 31 33 36 33 30 25 22 19 21 16 13 11 10 12 18 24 30 34 36 37 38 36 36 36 36 35 34 33 33 32 31 31 31 29 26 23 19 17 16
8 10 11 11 5 5 13 9 5 5 12 26 35 35 30 26 23 19 17 13 13 12 11 16 22 29 34 38 38 37 34 32 32 31 31 30 29 27 26 25 24 22 19 17 15 14 14 14 15
10 12 10 7 7 14 6 8 9 11 11 17 23 32 27 26 22 18 15 14 12 11 13 19 26 33 38 39 38 35 32 30 29 27 25 24 23 21 19 16 13 11 10 10 11 12 13 14 16
12 13 12 10 9 1 3 7 12 6 11 10 21 20 20 23 19 16 17 16 11 11 14 21 28 36 38 37 34 31 29 28 26 22 18 16 15 12 8 6 5 6 7 8 10 11 12 13 14
15 12 11 4 4 3 4 7 2 7 8 11 12 12 13 16 16 15 17 15 12 14 16 23 31 36 35 33 31 29 27 24 20 15 13 12 11 10 9 8 7 7 8 9 10 11 11 12 13
13 12 3 5 4 11 3 3 8 5 5 5 8 11 15 13 14 13 14 17 14 14 18 25 32 34 32 31 29 25 23 18 15 12 11 11 12 11 11 10 10 10 11 11 12 13 13 14 15
11 11 7 11 4 6 6 8 6 1 5 5 9 10 12 13 14 13 13 14 14 17 21 26 31 31 29 28 25 22 18 14 12 11 11 11 11 12 12 12 12 13 12 13 13 14 15 17 18
12 11 7 4 5 5 6 6 1 5 6 5 4 7 11 12 12 13 13 12 13 18 21 27 30 29 27 25 22 18 13 11 10 10 10 10 11 11 12 13 13 13 14 14 15 16 18 18 19
12 9 11 10 7 7 10 17 3 5 4 5 7 9 10 12 14 14 14 13 15 18 21 27 27 26 24 21 17 13 11 8 9 9 9 9 10 11 13 14 14 15 16 16 17 18 19 20 21
Wind_Direction
336 3 63 94 77 122 110 96 108 105 49 52 59 42 28 3 36 54 120 145 145 67 14 36 46 30 14 1 2 352 347 338 333 328 320 308 303 300 300 301 300 299 298 296 295 295 297 297 294
333 18 83 70 245 166 98 120 116 112 94 73 27 2 1 18 74 107 106 116 72 77 79 60 55 52 75 83 59 22 350 343 331 324 319 314 309 305 305 306 305 305 304 304 305 305 302 297 293
348 43 77 120 46 78 85 102 118 116 101 82 23 29 53 90 123 114 113 108 123 126 120 114 92 84 104 93 56 17 352 338 320 304 308 311 314 316 318 318 316 315 315 314 311 307 303 299 295
36 58 52 58 106 100 109 108 112 93 81 44 50 60 89 112 135 135 140 151 143 132 106 89 89 69 37 29 41 12 4 353 335 325 319 308 301 297 298 300 301 303 304 306 308 308 308 305 302
325 73 142 95 109 115 115 119 110 96 87 75 87 101 109 113 137 146 147 140 136 100 76 65 52 42 39 37 28 36 27 11 349 319 299 285 279 285 295 303 312 316 314 311 306 305 304 303 301
260 161 195 117 123 126 125 131 129 114 108 100 104 113 125 145 132 136 130 111 97 94 88 78 69 60 64 69 70 62 45 29 5 349 336 337 338 336 332 331 330 326 323 318 312 305 297 295 300
227 217 207 164 157 142 143 138 120 131 117 115 117 145 152 154 125 114 107 98 89 80 71 69 69 68 56 65 60 50 37 25 12 0 351 345 337 326 320 317 312 307 302 301 298 290 288 289 288
225 226 217 199 180 173 170 147 163 132 147 126 113 159 169 135 126 107 103 91 76 69 69 68 60 33 25 36 43 27 355 336 327 317 307 304 304 304 307 306 309 302 304 306 304 300 295 292 287
226 230 230 209 196 191 183 157 165 164 161 118 127 162 155 139 131 119 110 91 72 59 48 56 25 3 333 324 329 328 325 335 330 320 308 301 300 306 308 309 317 322 318 313 311 309 304 292 283
217 228 227 218 205 193 182 161 174 171 157 135 145 146 156 145 164 138 110 94 75 41 23 343 336 333 333 300 315 325 322 324 329 329 319 307 303 304 305 309 315 316 318 316 315 314 319 307 293
216 218 224 217 202 193 190 164 171 167 168 159 152 148 160 154 143 141 115 105 43 359 353 330 328 327 324 315 310 309 310 319 316 316 320 308 301 300 302 312 307 316 312 313 318 316 318 323 311
201 210 207 205 199 189 184 185 172 168 186 170 159 156 148 150 167 178 191 227 262 286 300 304 314 317 315 309 305 306 306 307 307 306 307 308 303 302 300 301 301 308 312 313 316 312 314 323 312
188 198 192 189 189 188 194 189 194 194 187 176 166 171 162 156 173 192 224 249 268 278 282 296 302 305 306 304 301 302 306 306 303 302 305 301 300 298 297 298 300 308 312 314 312 309 305 308 306
192 182 184 184 187 188 188 201 204 197 195 191 187 179 183 175 181 219 258 272 281 287 294 299 302 302 301 299 298 299 300 299 297 297 299 302 298 296 294 296 300 304 306 308 307 303 298 299 298
163 169 185 183 190 188 193 202 204 199 201 201 199 198 203 203 219 244 268 276 281 280 285 287 290 294 295 295 295 296 296 295 294 293 292 294 294 294 293 290 290 295 299 302 301 300 295 293 296
174 177 178 171 176 188 179 197 202 202 203 205 201 208 210 216 230 250 267 271 275 280 286 293 297 296 295 298 300 300 300 298 294 289 289 288 289 288 288 287 288 291 294 295 291 292 293 291 291
194 197 199 170 172 197 182 185 206 207 208 209 207 210 219 225 238 246 263 276 278 283 290 295 299 302 306 307 309 311 311 309 304 299 294 290 287 284 284 284 287 290 290 288 286 288 289 289 290
193 202 195 193 196 185 195 209 212 210 211 213 215 218 226 233 247 252 269 276 282 293 295 297 301 306 307 309 312 314 316 313 311 305 299 294 290 287 285 286 287 289 289 289 290 291 293 295 293
187 201 198 180 207 188 200 223 221 215 214 215 221 229 233 237 244 255 270 271 280 286 285 287 295 301 310 322 325 321 317 313 309 305 302 298 295 292 289 290 291 291 290 290 292 294 296 297 295
193 191 169 176 199 190 205 217 222 229 225 216 226 233 236 241 243 263 267 272 279 277 281 292 305 325 325 324 322 317 314 310 308 306 302 299 296 294 292 291 291 293 294 293 295 296 296 296 297
203 199 186 186 192 197 205 240 237 237 237 228 227 235 236 243 251 267 268 272 267 272 283 303 320 321 322 321 319 317 313 310 306 303 301 299 297 295 293 292 292 294 293 295 297 298 300 301 304
188 190 186 182 171 211 197 259 241 240 236 232 231 239 243 246 268 266 267 263 264 271 285 306 315 320 321 322 318 315 314 313 308 304 301 299 298 296 296 297 297 297 296 298 299 302 307 312 318
162 169 168 164 208 177 204 257 148 271 253 240 231 241 249 252 267 260 255 257 263 268 288 309 318 322 324 320 321 320 318 319 318 312 307 304 302 300 299 298 299 300 300 302 309 314 321 326 328
189 152 156 187 230 239 158 252 223 200 260 233 233 246 249 253 259 251 246 250 259 272 295 314 323 325 323 324 324 322 320 322 322 317 313 310 308 304 302 302 305 310 316 321 328 331 333 334 335
173 176 205 216 204 262 51 256 276 251 280 241 229 253 249 247 250 242 241 240 262 273 299 319 324 325 325 324 326 327 328 327 326 325 328 332 335 334 337 345 346 347 346 342 339 338 337 339 341
186 209 274 236 235 90 179 250 201 283 257 280 258 264 247 240 240 239 239 244 267 276 303 321 324 322 324 327 329 331 332 332 336 345 355 9 22 30 37 37 27 14 7 0 1 3 359 357 353
202 219 209 273 264 265 230 235 263 259 247 256 264 263 263 259 253 251 247 247 270 292 311 319 320 323 328 333 335 337 337 341 354 6 17 28 35 40 45 43 38 33 29 21 14 10 6 359 355
204 203 196 216 262 268 171 259 285 198 214 261 262 272 271 263 252 252 253 255 275 305 309 314 322 326 332 337 340 342 346 353 12 18 28 38 49 53 52 46 41 35 29 23 17 12 5 359 355
201 201 216 277 281 290 294 329 154 234 260 221 241 248 246 243 241 251 262 271 290 293 306 321 325 329 335 340 344 348 0 6 33 40 44 43 47 49 45 42 38 33 26 19 13 7 2 357 353
206 224 209 242 190 250 294 293 269 200 230 258 234 239 235 225 232 246 257 266 280 296 310 323 326 331 335 342 341 350 4 24 43 45 45 35 37 44 42 37 31 25 19 12 6 2 357 353 348
Height
3191 3191 3191 3190 3194 3190 3190 3193 3191 3191 3192 3189 3188 3187 3187 3187 3188 3191 3187 3188 3189 3189 3190 3190 3189 3189 3190 3191 3191 3191 3191 3192 3192 3192 3192 3192 3192 3191 3191 3190 3190 3189 3188 3187 3186 3186 3185 3185 3184
3192 3191 3192 3190 3192 3184 3191 3191 3192 3193 3191 3189 3188 3189 3189 3187 3187 3189 3189 3190 3190 3191 3189 3189 3189 3189 3190 3190 3190 3190 3191 3191 3192 3192 3192 3192 3192 3191 3191 3190 3190 3190 3189 3188 3188 3187 3186 3185 3184
3192 3192 3193 3193 3192 3189 3191 3192 3192 3192 3191 3190 3189 3189 3189 3189 3190 3190 3190 3191 3191 3190 3188 3188 3188 3189 3189 3189 3190 3190 3190 3191 3191 3191 3191 3191 3191 3191 3190 3190 3189 3189 3189 3188 3187 3186 3185 3185 3184
3192 3193 3194 3194 3193 3193 3193 3193 3192 3192 3191 3191 3190 3190 3190 3190 3190 3190 3190 3190 3190 3190 3189 3188 3189 3190 3190 3190 3189 3191 3191 3191 3192 3192 3191 3190 3190 3189 3188 3187 3186 3186 3185 3185 3185 3184 3184 3183 3182
3193 3194 3194 3194 3194 3193 3192 3192 3193 3194 3192 3191 3190 3191 3190 3191 3190 3190 3190 3190 3191 3191 3190 3190 3191 3191 3191 3191 3191 3191 3191 3191 3190 3190 3189 3188 3187 3187 3186 3185 3185 3184 3184 3182 3181 3181 3180 3180 3179
3194 3194 3193 3191 3195 3194 3193 3192 3193 3193 3192 3192 3191 3191 3191 3191 3191 3191 3192 3192 3192 3191 3192 3191 3191 3192 3192 3191 3191 3190 3190 3190 3190 3190 3189 3189 3189 3188 3186 3185 3184 3183 3181 3180 3179 3178 3176 3174 3174
3192 3194 3192 3194 3195 3195 3194 3192 3194 3194 3193 3193 3193 3193 3192 3192 3193 3193 3193 3193 3193 3193 3193 3193 3193 3193 3192 3192 3191 3191 3191 3190 3190 3190 3189 3188 3187 3186 3185 3183 3181 3180 3178 3177 3176 3174 3172 3171 3169
3190 3192 3193 3193 3193 3194 3193 3192 3192 3195 3193 3193 3193 3194 3192 3193 3194 3195 3196 3196 3195 3194 3194 3194 3194 3194 3193 3193 3193 3192 3192 3191 3190 3188 3187 3186 3185 3184 3183 3180 3179 3177 3174 3172 3171 3169 3168 3166 3165
3186 3191 3189 3190 3192 3192 3191 3192 3191 3191 3192 3193 3194 3193 3193 3194 3195 3196 3197 3196 3196 3195 3195 3195 3195 3195 3194 3194 3193 3192 3191 3190 3189 3187 3186 3184 3183 3181 3179 3177 3175 3173 3171 3169 3167 3165 3162 3160 3159
3184 3186 3186 3187 3190 3191 3191 3192 3191 3192 3193 3193 3193 3193 3194 3195 3196 3196 3196 3196 3196 3195 3195 3195 3194 3194 3194 3193 3192 3192 3190 3189 3187 3185 3184 3182 3180 3179 3177 3174 3172 3170 3168 3166 3163 3160 3157 3154 3153
3181 3182 3183 3185 3187 3189 3190 3189 3190 3193 3192 3193 3193 3193 3195 3196 3197 3197 3196 3196 3196 3196 3195 3194 3193 3193 3192 3192 3191 3189 3188 3186 3184 3183 3181 3179 3178 3176 3174 3171 3169 3167 3165 3163 3160 3157 3154 3152 3150
3178 3179 3180 3183 3183 3186 3190 3187 3188 3193 3191 3192 3193 3194 3194 3195 3196 3196 3196 3196 3196 3196 3195 3193 3192 3191 3190 3189 3188 3186 3185 3183 3181 3179 3178 3176 3174 3173 3171 3169 3166 3164 3162 3159 3157 3154 3151 3149 3147
3175 3176 3177 3178 3180 3184 3186 3186 3187 3188 3190 3192 3193 3194 3194 3194 3196 3197 3196 3196 3195 3195 3194 3193 3191 3190 3188 3186 3184 3182 3180 3178 3176 3175 3174 3172 3170 3169 3166 3164 3162 3160 3158 3155 3153 3150 3148 3145 3144
3174 3174 3176 3177 3179 3181 3183 3184 3186 3187 3189 3191 3192 3193 3193 3194 3195 3195 3195 3194 3193 3192 3191 3189 3188 3186 3184 3182 3180 3178 3176 3174 3172 3170 3168 3166 3164 3163 3161 3159 3156 3154 3153 3150 3148 3146 3144 3141 3140
3172 3174 3174 3175 3177 3179 3180 3182 3182 3186 3187 3189 3191 3192 3193 3194 3193 3193 3193 3192 3191 3189 3188 3186 3185 3183 3181 3179 3177 3174 3172 3169 3167 3165 3164 3162 3160 3158 3156 3154 3152 3150 3148 3145 3143 3141 3139 3137 3135
3172 3174 3174 3174 3174 3175 3180 3181 3181 3184 3186 3188 3190 3191 3192 3191 3191 3191 3190 3189 3188 3186 3185 3183 3181 3179 3178 3175 3173 3171 3168 3165 3163 3160 3158 3156 3154 3152 3150 3148 3146 3144 3142 3139 3137 3136 3134 3132 3129
3171 3168 3170 3174 3174 3175 3179 3178 3179 3182 3183 3185 3188 3189 3190 3190 3190 3188 3187 3186 3185 3183 3181 3179 3178 3176 3174 3172 3169 3166 3163 3160 3157 3155 3152 3150 3147 3146 3143 3141 3139 3137 3135 3133 3131 3129 3127 3124 3122
3165 3166 3170 3171 3174 3176 3179 3177 3176 3178 3181 3183 3186 3186 3187 3187 3187 3186 3184 3183 3181 3180 3178 3176 3174 3172 3170 3167 3163 3160 3157 3155 3152 3149 3146 3144 3141 3139 3137 3134 3133 3131 3128 3125 3123 3121 3118 3115 3111
3164 3166 3168 3170 3170 3175 3177 3173 3174 3176 3178 3180 3182 3183 3184 3184 3183 3182 3181 3179 3179 3177 3175 3173 3171 3168 3165 3162 3159 3156 3152 3149 3145 3142 3139 3137 3134 3132 3130 3127 3125 3124 3120 3118 3115 3112 3108 3106 3100
3165 3166 3168 3168 3168 3174 3174 3171 3171 3172 3173 3176 3178 3179 3179 3179 3178 3178 3177 3176 3175 3173 3171 3170 3168 3165 3162 3159 3155 3152 3148 3142 3138 3134 3130 3128 3125 3123 3121 3119 3116 3115 3111 3108 3106 3103 3101 3096 3090
3163 3164 3165 3167 3167 3170 3171 3170 3168 3170 3170 3170 3173 3174 3174 3174 3175 3175 3173 3172 3171 3169 3169 3167 3165 3162 3159 3154 3150 3146 3141 3135 3131 3126 3122 3119 3117 3114 3111 3109 3107 3105 3103 3100 3097 3094 3092 3088 3084
3160 3163 3164 3165 3166 3164 3167 3159 3161 3163 3164 3165 3168 3169 3170 3171 3173 3170 3169 3168 3167 3167 3166 3165 3162 3158 3154 3150 3145 3140 3134 3129 3124 3119 3114 3111 3109 3106 3103 3100 3099 3097 3095 3093 3090 3088 3085 3083 3080
3158 3160 3163 3164 3165 3165 3165 3165 3161 3159 3160 3161 3164 3164 3166 3168 3168 3167 3166 3165 3165 3165 3163 3161 3158 3154 3149 3144 3139 3133 3128 3123 3117 3113 3108 3104 3101 3099 3097 3094 3092 3091 3090 3088 3086 3084 3082 3080 3077
3156 3160 3162 3163 3162 3158 3156 3162 3156 3157 3158 3160 3160 3160 3162 3163 3163 3163 3163 3164 3164 3162 3160 3158 3154 3150 3144 3138 3132 3127 3122 3117 3113 3107 3103 3099 3095 3092 3091 3089 3088 3087 3086 3085 3083 3081 3079 3077 3074
3156 3158 3153 3154 3152 3151 3158 3160 3156 3156 3155 3157 3160 3156 3157 3158 3159 3160 3161 3162 3161 3159 3158 3155 3150 3145 3140 3135 3129 3123 3118 3113 3108 3103 3099 3095 3091 3088 3087 3087 3086 3086 3085 3084 3082 3080 3077 3075 3072
3153 3154 3148 3148 3146 3147 3156 3154 3153 3154 3154 3154 3154 3154 3154 3155 3156 3158 3158 3159 3157 3157 3154 3150 3145 3142 3137 3131 3125 3119 3114 3109 3105 3100 3097 3094 3091 3089 3087 3087 3086 3086 3084 3082 3080 3078 3076 3073 3071
3151 3152 3151 3152 3153 3152 3147 3152 3152 3153 3153 3152 3152 3152 3151 3153 3154 3155 3155 3155 3155 3154 3150 3146 3144 3139 3133 3127 3121 3115 3110 3106 3103 3100 3097 3094 3092 3090 3089 3087 3086 3085 3083 3082 3079 3077 3075 3072 3069
3148 3148 3151 3150 3148 3146 3142 3148 3148 3151 3152 3151 3151 3151 3150 3151 3151 3151 3151 3152 3152 3149 3147 3145 3140 3135 3129 3124 3118 3113 3108 3105 3102 3100 3098 3095 3093 3091 3090 3088 3086 3085 3083 3081 3079 3076 3074 3071 3067
3146 3146 3148 3149 3150 3143 3142 3142 3145 3149 3151 3151 3150 3149 3148 3148 3148 3148 3149 3149 3147 3146 3144 3141 3135 3130 3126 3121 3116 3112 3108 3105 3102 3100 3098 3097 3095 3093 3090 3089 3087 3085 3083 3081 3078 3075 3072 3069 3066
3141 3141 3144 3143 3145 3146 3147 3146 3143 3146 3148 3148 3148 3146 3146 3146 3146 3146 3146 3145 3144 3143 3140 3137 3132 3127 3123 3119 3115 3111 3108 3105 3103 3101 3099 3098 3096 3094 3091 3089 3087 3085 3083 3080 3078 3075 3072 3068 3065